Location: Mahannah Oil Field
(37.4664°N, 96.6003°W)
Time: 23:48:13
(UTC+00:00)

Vanguard 3 - Pass Details

Date: 27 January 2021
Orbit: 508 x 3262 km, 33.4° (Epoch: 03 March)

Event Time Altitude Azimuth Distance (km) Brightness Sun altitude
Exits shadow 11:08:18 56° 232° (SW) 1,489 8.1 -28.8°
Maximum altitude 11:09:55 68° 179° (S) 1,476 8.3 -28.5°
Drops below altitude 10° 11:21:55 10° 100° (E) 4,756 12.1 -26.1°
Sets 11:26:42 0° 99° (E) 6,191 13.0 -25.2°
